Regional Weather Roundup
Issued by NWS Wakefield, VA

Home | Current Version | Previous Version | Graphics & Text | Print | Product List | Glossary On
Versions: 1 2 3 4 5 6 7 8 9 10 11 12 13 14 15 16 17 18 19 20 21 22 23 24 25 26 27 28 29 30 31 32 33 34 35 36 37 38 39 40 41 42 43 44 45 46 47 48 49 50
000
ASUS41 KAKQ 261410
RWRAKQ

REGIONAL WEATHER ROUNDUP
NATIONAL WEATHER SERVICE WAKEFIELD VA
900 AM EST FRI DEC 26 2014

Note: "fair" indicates few or no clouds below 12,000 feet with no
significant weather and/or obstructions to visibility. * = Denotes
station may not report precipitation (e.g., rain,snow,etc.),
thunder or fog.

VAZ042-051-052>054-056-261500-
NORTHERN VIRGINIA

CITY           SKY/WX    TMP DP  RH WIND       PRES   REMARKS
WASH NATIONAL  SUNNY     40  32  73 CALM      30.35R
DULLES         MOSUNNY   33  29  85 CALM      30.34R
FORT BELVOIR   SUNNY     33  31  91 CALM      30.35R
QUANTICO       SUNNY     34  30  85 NW5       30.35R
FREDERICKSBRG* SUNNY     33  33 100 CALM      30.33R
STAFFORD*      SUNNY     31  31 100 CALM      30.38R
WARRENTON      SUNNY     32  32 100 CALM      30.33R
CULPEPER*      SUNNY     30  28  93 CALM      30.33R
MANASSAS*      SUNNY     34  34 100 CALM      30.34R
LEESBURG*      SUNNY     36  32  87 W3        30.34R
WINCHESTER     SUNNY     34  28  80 CALM      30.32R
FRONT ROYAL*   SUNNY     32  28  86 CALM      30.32R
LURAY*         SUNNY     32  32 100 CALM      30.31R
$$

VAZ048-049-060>072-079>083-261500-
CENTRAL AND SOUTH CENTRAL VIRGINIA

CITY           SKY/WX    TMP DP  RH WIND       PRES   REMARKS
RICHMOND       MOSUNNY   39  33  79 CALM      30.34R
CHESTERFIELD*  SUNNY     36  23  60 CALM      30.35R
PETERSBURG*    SUNNY     35  34  96 CALM      30.36R
HANOVER        SUNNY     32  31  96 CALM      30.35R
TAPPAHANNOCK*  SUNNY     35  32  89 CALM      30.35R
QUINTON*       SUNNY     34  32  93 MISG      30.35R
CHARLOTTSVILLE SUNNY     32  28  85 CALM      30.31R
GORDONSVILLE*  SUNNY     30  28  91 CALM      30.31R
ORANGE*        SUNNY     32  30  93 CALM      30.32S
LOUISA*        SUNNY     34  32  93 SE3       30.30R
BUMPASS*       SUNNY     32  30  94 CALM      30.32R
FARMVILLE*     SUNNY     33  33 100 SW3       30.31S
CREWE*         SUNNY     31  29  92 CALM      30.33R
FORT PICKETT*  SUNNY     36  34  94 CALM      30.32S
CHASE CITY*    SUNNY     35  35  99 CALM      30.34R
CLARKSVILLE*   SUNNY     32  32 100 CALM      30.33S
SOUTH HILL*    SUNNY     33  32  96 S3        30.40R
LAWRENCEVILLE* SUNNY     34  33  94 CALM      30.33S
EMPORIA*       SUNNY     34  34 100 CALM      30.37R
$$

VAZ088>098-261500-
SOUTHEAST VIRGINIA

CITY           SKY/WX    TMP DP  RH WIND       PRES   REMARKS
NORFOLK        SUNNY     46  42  86 CALM      30.34R
VIRGINIA BEACH MOSUNNY   43  40  89 W3        30.33R
NORFOLK NAVAL  MOSUNNY   51  40  65 CALM      30.35R
WEST POINT*    SUNNY     37  35  90 CALM      30.36F
SALUDA*        FAIR      38  37  93 W7        30.34S
NEWPORT NEWS   SUNNY     42  37  82 CALM      30.34R
LANGLEY AFB    SUNNY     41  39  93 CALM      30.34R
FORT EUSTIS    SUNNY     41  41 100 NW1       30.33R
WILLIAMSBURG*  SUNNY     39  37  93 CALM      30.36R
HR EXEC AP*    SUNNY     37  36  93 CALM      30.37R
FRANKLIN*      SUNNY     36  36 100 CALM      30.35R
WAKEFIELD      SUNNY     36  33  89 CALM      30.35R
$$

VAZ020-022-025-037-045-261500-
WEST CENTRAL AND SOUTHWEST VIRGINIA

CITY           SKY/WX    TMP DP  RH WIND       PRES   REMARKS
STAUNTON*      SUNNY     30  27  89 CALM      30.31S
WAYNESBORO*    SUNNY     32  28  84 CALM      30.29R
HOT SPRINGS VA SUNNY     37  15  41 W13       30.22R
LYNCHBURG      SUNNY     31  30  96 CALM      30.31S
DANVILLE       SUNNY     31  28  89 SW3       30.34R
SOUTH BOSTON*  SUNNY     31  29  92 CALM      30.35R
MARTINSVILLE   SUNNY     29  29 100 CALM      30.35S
ROANOKE        MOSUNNY   35  29  78 N3        30.34R
BLACKSBURG     SUNNY     28  27  95 CALM      30.33R
DUBLIN*        SUNNY     30  30 100 CALM      30.32S
MARION*        SUNNY     31  28  88 CALM      30.32R
HILLSVILLE*    SUNNY     29  26  85 SW5       30.28F
RICHLANDS*     MOSUNNY   35  28  73 CALM      30.29R
WISE*          SUNNY     36  28  75 SW3       30.30R
ABINGDON*      MOSUNNY   33  31  92 CALM      30.31R
$$

MDZ021>025-VAZ099-100-261500-
SOUTHERN MARYLAND AND THE DELMARVA PENINSULA

CITY           SKY/WX    TMP DP  RH WIND       PRES   REMARKS
PATUXENT RIVER MOSUNNY   39  34  82 W5        30.34R
BAY BRIDGE APT   N/A     41  32  70 CALM      30.34R
LEONARDTOWN    SUNNY     37  32  81 CALM      30.35R
DOVER          SUNNY     39  32  76 W3        30.31R
GEORGETOWN     SUNNY     38  33  82 CALM      30.34R
EASTON         NOT AVBL
CAMBRIDGE      SUNNY     36  34  93 CALM      30.33R
SALISBURY      SUNNY     39  33  79 CALM      30.34R
OCEAN CITY     SUNNY     40  34  79 NW5       30.34R
WALLOPS ISLAND SUNNY     41  36  82 NW3       30.35R
ACCOMACK*      SUNNY     37  36  93 CALM      30.35R
$$

NCZ012>017-030>032-261500-
NORTH CENTRAL AND EASTERN NORTH CAROLINA

CITY           SKY/WX    TMP DP  RH WIND       PRES   REMARKS
ROANOKE RAPIDS SUNNY     34  34 100 CALM      30.35R
RALEIGH        MOSUNNY   35  32  88 CALM      30.36R
ELIZABETH CITY SUNNY     44  38  79 CALM      30.34R
AHOSKIE*       SUNNY     36  34  92 CALM      30.36R
EDENTON*         N/A     39  37  92 CALM      30.35R
CURRITUCK*     SUNNY     41  37  88 CALM      30.35R
KILL DEVIL HLS SUNNY     48  44  86 SW3       30.32R
MANTEO         SUNNY     46  45  93 CALM      30.33R
CAPE HATTERAS  SUNNY     50  45  83 N5        30.33R
TARBORO*       SUNNY     38  37  98 CALM      30.37R
GOLDSBORO      FOG       39  39 100 CALM      30.35R VSB 1
WASHINGTON     SUNNY     40  37  91 CALM      30.35R
GREENVILLE     SUNNY     39  37  93 CALM      30.36R
NEW BERN       MOSUNNY   44  41  89 CALM      30.36R
WILMINGTON     SUNNY     46  40  79 CALM      30.36R
$$

VAZ048-261500-
ELSEWHERE

CITY           SKY/WX    TMP DP  RH WIND       PRES   REMARKS
HARRISBURG PA  SUNNY     35  29  78 NW7       30.30R
BALTIMORE      MOSUNNY   39  31  72 CALM      30.32R
ANNAPOLIS      SUNNY     39  32  76 CALM      30.34R
ANDREWS AFB    SUNNY     40  31  70 W5        30.33R
PHILADELPHIA   SUNNY     40  29  64 W9        30.31R
HENDERSON NC   MOSUNNY   36  34  91 CALM      30.34S
GREENSBORO     MOSUNNY   34  31  88 CALM      30.32R
ROCKY MOUNT    SUNNY     39  35  86 CALM      30.36R
$$

VAZ100-261500-
MARINE

STATION/POSITION TIME  TEMP    WIND        PRES    WAVE   SWELL
                       AIR SEA DIR/SP/G            HT/PER HT/PER
                 (UTC) (F)     (DEG/KT/KT) (MB)    (FT/S) (FT/S)
CAPE MAY NJ      1400   43 45  320/  7/  9 1026.2R
LEWES DE         1400   39 45  270/  5/  5 1026.7R
15NM E FENWICK I 1400   44 45              1026.6R   2/ 8
OCEAN-CITY-INLET 1400   40 46  300/  5/  6 1026.8R
WACHAPREAGUE VA  1400   45 47   CALM  /  1 1027.3R
THOMAS POINT MD  1400   39 42  250/  5/  5 1028.5R
GOOSES REEF MD   1400   41     VRB  6/  6  1026.3R   0
COVE POINT MD    1400   40     280/  4/  5 1027.1S
SOLOMONS ISLAND  1400      43                N/A
BISHOPS HEAD MD  1400   43 43  290/  4/  4 1026.7S
PINEY POINT MD   1400           CALM  /  1   N/A
POTOMAC MD       1400   42 43  300/  4/  6 1026.6R   0
CAMBRIDGE MD     1400   37 42  230/  3/  3 1027.1R
LEWISETTA VA     1400   38 44  250/  3/  3 1027.2F
RAPPAHANNOCK LGT 1400          290/  1/  1 1028.0R
STINGRAY PT      1400   43 44  300/  6/  6 1028.0R   0
YORK RVR RNG VA  1400   42     340/  3/  3 1026.8R
YORKTOWN VA      1400   40 45  300/  3/  4 1027.2R
JAMESTOWN VA     1400   39 46  340/  4/  4   N/A     0
DOMINION TERM VA 1400   43     300/  4/  5 1027.3R
KIPTOPEKE VA     1400      50   CALM  /  2   N/A
CHES BAY BRIDGE  1400   45 45   20/  4/  5 1026.6R
CAPE HENRY VA    1400   47      50/  4/  5 1025.8R
CHESAPEAKE LGHT  1300   48      50/  8/  8 1027.1R
WILLOUBY STN VA  1400   44     350/  4/  4 1027.6S
S CRANEY ISL VA  1400          300/  3/  3 1027.3R
CAPE HENRY BUOY  1300      48                N/A     2/ 7
1ST LANDING BUOY 1400   47 45  360/  2/  4 1026.9R   1/ 4
CAPE CHARLES BUO 1400      47                N/A     2/ 8   2/ 8
64NM E OF VA BCH 1400   51 52   30/  8/  8 1026.5R   3/ 8   2/ 8
DUCK PIER NC     1400   47 51  260/  3/  6 1026.2R
44100 DUCK FRF   1400      50                N/A     2/ 8   2/11
44056 DUCK FRF   1400      50                N/A     2/11
OREGON INLET NC  1400   54 54   CALM  /  1 1026.8R
HATTERAS NC      1400   50 55  360/  4/  5 1027.1F
DIAMOND SHLS NC  1400   57                 1026.9R   3/ 7
CAPE LOOKOUT NC  1300   48     360/  7/  7 1026.6R
$$


USA.gov is the U.S. government's official web portal to all federal, state and local government web resources and services.